{"data":{"norad_id":52298,"intl_designator":"2022-041AP","name":"STARLINK-3760","alt_names":[],"object_type":"PAYLOAD","status":"ACTIVE","operator":null,"country":"US","launch_date":"2022-04-21","launch_site_code":"AFETR","launch_vehicle":null,"mission":null,"orbit_class":"UNKNOWN","rcs_meters":null,"size_class":null,"mass_kg":null,"dimensions":null,"purposes":["comms"],"wikipedia_slug":null,"has_3d_model":false,"image_url":null,"decayed_at":null,"tle_current":{"epoch":"2026-05-25T04:50:25.113984Z","epoch_age_seconds":53509,"freshness":"FRESH","line1":"1 52298U 22041AP  26145.20167956 -.00001578  00000+0 -81043-4 0  9991","line2":"2 52298  53.2124 115.2572 0001805  84.5612 275.5586 15.08844773226069","mean_motion":15.08844773,"eccentricity":0.0001805,"inclination_deg":53.2124,"raan_deg":115.2572,"arg_perigee_deg":84.5612,"mean_anomaly_deg":275.5586,"bstar":-8.1043e-5,"rev_number":22606,"period_min":95.437252775637,"perigee_km":538.48012507416,"apogee_km":540.9774746279,"semimajor_km":6917.865799851,"source":"CELESTRAK","updated_at":"2026-05-25T13:38:17.087608Z"}}}